Lid_Strength_Index
1 0 0 0 0 -0 0 -0 -0 -0 -0 -0 -0 -0 -0 -0 -0 -0 -0 -0 0 0 0 1 0 -0 1 1 0 0 1 1 3 2 0 -1 -0 -0 -1 -1 -1 -1 -1
0 0 1 0 0 0 0 0 -0 -0 -0 0 -0 -0 -0 -0 -0 -0 0 0 0 1 0 0 1 1 1 -0 0 1 1 0 2 3 1 1 0 -0 -1 -0 -1 -1 -1
1 1 1 1 1 0 0 0 0 -0 -0 1 2 2 2 2 1 1 1 0 0 0 0 1 0 0 1 1 1 1 1 1 1 2 2 0 0 -0 -0 0 -0 -1 -1
1 1 1 1 2 2 2 3 3 1 1 0 0 -0 -0 -0 -0 -0 -0 0 0 0 0 0 0 0 1 1 1 1 1 1 1 2 2 2 2 0 0 1 1 -1 0
2 3 3 3 4 3 1 0 0 0 -0 -0 0 1 1 1 1 0 0 0 1 1 1 0 0 0 0 0 1 0 1 1 2 2 2 2 2 2 2 2 2 1 -0
3 3 3 1 1 1 0 0 -0 0 1 1 0 1 2 2 2 2 2 3 2 3 3 2 1 1 1 1 1 1 1 1 2 3 4 4 4 4 4 4 4 4 4
1 1 1 1 1 1 0 0 1 1 1 2 2 2 2 1 2 1 1 2 3 3 3 3 2 1 0 2 3 3 3 4 3 4 5 5 4 4 4 5 5 5 5
1 1 1 1 1 1 0 1 0 0 1 1 1 1 1 1 2 2 2 1 1 1 2 2 1 1 0 1 3 3 3 3 3 2 3 3 3 2 1 2 3 4 3
1 1 1 0 1 1 1 1 0 0 0 1 1 1 0 0 1 1 -0 -0 1 1 1 2 2 2 3 1 1 2 2 1 1 2 2 2 1 1 1 2 2 3 4
1 1 0 0 0 1 1 0 0 -0 0 0 0 -0 1 -0 2 2 -0 0 1 1 -0 -0 1 1 3 3 1 2 2 3 2 1 1 0 0 1 1 2 1 2 3
0 0 0 0 0 0 0 -0 -0 0 0 0 0 0 -0 0 0 2 2 -0 1 1 1 1 0 2 3 3 2 0 1 -0 0 -1 -0 0 0 0 -0 0 1 1 3
0 0 0 0 -0 0 0 0 0 0 1 1 1 1 0 -1 3 3 3 2 0 1 1 0 -0 2 3 2 1 2 2 0 0 0 0 0 0 1 -0 -1 -2 -2 -1
0 1 0 0 0 -0 0 0 1 1 2 2 1 1 1 1 0 3 3 3 2 0 -0 0 1 2 1 1 0 0 0 -0 1 1 2 2 1 0 0 -0 0 -0 -0
1 1 1 1 1 0 0 2 3 3 3 2 2 2 2 1 1 1 1 0 1 1 0 1 1 1 2 1 0 0 -0 0 0 1 1 0 -1 -0 0 -0 1 1 1
1 1 1 1 1 1 1 2 3 3 4 3 2 3 3 3 3 7 7 2 2 3 2 1 2 2 2 2 1 1 1 1 1 1 1 1 1 1 0 0 0 -0 1
1 1 2 1 1 1 2 3 8 9 9 10 9 5 3 7 9 10 10 10 7 6 2 2 2 2 2 1 2 2 2 1 1 1 2 2 2 2 2 1 1 2 2
1 1 2 1 1 1 2 3 4 6 10 10 10 9 10 11 10 11 11 9 7 4 2 2 2 2 2 2 2 2 1 1 -1 1 1 1 1 2 2 1 1 1 2
1 5 1 1 1 1 2 3 3 3 4 3 6 6 9 9 11 11 9 7 2 2 2 2 2 2 2 2 1 2 1 1 1 1 0 0 1 1 1 1 1 1 2
1 1 1 1 1 1 1 2 3 3 3 3 3 6 6 9 9 8 7 1 2 2 2 2 2 2 2 2 1 1 1 2 2 2 2 2 2 2 2 2 2 4 4
1 2 1 1 1 1 1 1 2 2 2 3 4 3 2 3 2 2 1 1 2 2 2 2 1 1 1 1 2 2 2 2 2 2 2 2 2 2 2 2 2 3 2
1 1 1 1 1 1 1 1 1 1 1 4 4 3 9 3 2 2 1 1 2 2 1 2 1 1 2 2 2 2 2 2 3 3 3 2 2 3 2 2 2 2 2
1 1 1 1 1 1 1 2 2 1 1 4 4 3 8 2 1 1 0 1 1 1 1 1 1 1 2 2 2 2 3 3 3 3 2 2 3 3 3 3 2 2 2
1 1 3 4 4 5 3 3 3 2 2 3 3 2 1 1 1 1 1 1 1 1 1 1 2 2 2 2 2 2 3 3 3 2 2 5 6 5 3 3 2 2 2
3 3 5 5 5 5 5 4 4 6 4 3 2 2 1 1 1 1 1 1 1 1 1 2 2 2 2 2 2 2 3 2 2 2 4 6 6 5 3 3 3 2 2
4 5 5 5 6 5 5 5 5 4 3 3 2 1 1 1 1 1 0 0 1 1 2 2 2 2 3 2 3 3 6 10 6 8 4 5 6 4 4 4 4 4 3
5 5 5 5 5 5 4 5 4 3 3 2 2 1 1 1 1 1 1 1 1 2 2 1 2 2 3 3 4 8 12 12 8 12 7 6 5 4 4 6 5 4 4